Weather History for KCDC - May, 2009

Change the Weather History Date:

Wednesday, May 13, 2009

  Actual Average Record
Temperature  
Mean Temperature 53 °F 55 °F  
Max Temperature 68 °F 71 °F 89 °F (1996)
Min Temperature 37 °F 39 °F 27 °F (1967)
Degree Days  
Heating Degree Days 12 10  
Month to date heating degree days 77 155  
Since 1 July heating degree days 5710 6041  
Cooling Degree Days 0 0  
Month to date cooling degree days 0 0  
Year to date cooling degree days 0 0  
Growing Degree Days 5 (Base 50)    
Moisture  
Dew Point 21 °F    
Average Humidity 31    
Maximum Humidity 45    
Minimum Humidity 16    
Precipitation  
Precipitation 0.00 in 0.02 in 0.42 in (1977)
Month to date precipitation T 0.31  
Year to date precipitation 3.75 4.58  
Sea Level Pressure  
Sea Level Pressure 29.90 in    
Wind  
Wind Speed 8 mph (NNW)    
Max Wind Speed 17 mph    
Max Gust Speed 24 mph    
Visibility 10 miles    
Events      
T = Trace of Precipitation, MM = Missing Value Source: NWS Daily Summary

Daily Weather History Graph

Daily Weather History Graph

Search for Another Location

Airport or City:

Trip Planner

Search our weather history database for the weather conditions in past years. The results will help you decide how hot, cold, wet, or windy it might be!

Date:

Astronomy

May. 13, 2009 Rise Set
Actual Time 6:24 AM MDT 8:33 PM MDT
Civil Twilight 5:54 AM MDT 9:03 PM MDT
Nautical Twilight 5:19 AM MDT 9:38 PM MDT
Astronomical Twilight 4:40 AM MDT 10:17 PM MDT
Moon 12:10 AM MDT (5/13) 9:41 AM MDT (5/13)
Length of Visible Light 15h 08m
Length of Day
14h 09m
Waning Gibbous, 81% of the Moon is Illuminated
May 13
Waning Gibbous
May 17
Last Quarter
May 24
New
May 30
First Quarter
Jun 7
Full

Hourly Weather History & Observations

Time (MDT) Temp. Windchill Dew Point Humidity Pressure Visibility Wind Dir Wind Speed Gust Speed Precip Events Conditions
12:53 AM 57.0 °F - 24.1 °F 28% 29.70 in 10.0 mi NNW 11.5 mph - N/A   Clear
1:53 AM 51.1 °F - 21.0 °F 31% 29.74 in 10.0 mi SSW 4.6 mph - N/A   Clear
2:53 AM 46.9 °F - 21.9 °F 37% 29.76 in 10.0 mi NE 3.5 mph - N/A   Clear
3:53 AM 46.0 °F - 21.9 °F 39% 29.78 in 10.0 mi Calm Calm - N/A   Clear
4:53 AM 43.0 °F 41.3 °F 24.1 °F 47% 29.83 in 10.0 mi North 3.5 mph - N/A   Clear
5:53 AM 44.1 °F 39.5 °F 14.0 °F 30% 29.85 in 10.0 mi NNE 8.1 mph - N/A   Clear
6:53 AM 42.1 °F 36.1 °F 19.9 °F 41% 29.90 in 10.0 mi North 10.4 mph - N/A   Clear
7:53 AM 46.0 °F 41.0 °F 23.0 °F 40% 29.93 in 10.0 mi North 10.4 mph - N/A   Clear
8:53 AM 50.0 °F - 21.0 °F 32% 29.96 in 10.0 mi North 12.7 mph - N/A   Clear
9:53 AM 54.0 °F - 21.9 °F 29% 29.97 in 10.0 mi North 15.0 mph - N/A   Clear
10:53 AM 57.0 °F - 21.9 °F 26% 29.99 in 10.0 mi North 17.3 mph 23.0 mph N/A   Clear
11:53 AM 60.1 °F - 21.9 °F 23% 29.96 in 10.0 mi North 12.7 mph 20.7 mph N/A   Clear
12:53 PM 64.0 °F - 21.9 °F 20% 29.94 in 10.0 mi North 9.2 mph 16.1 mph N/A   Clear
1:53 PM 66.0 °F - 21.9 °F 19% 29.94 in 10.0 mi NW 11.5 mph - N/A   Clear
2:53 PM 68.0 °F - 21.0 °F 17% 29.92 in 10.0 mi NNW 9.2 mph 17.3 mph N/A   Clear
3:53 PM 66.9 °F - 19.9 °F 17% 29.91 in 10.0 mi NNW 11.5 mph 17.3 mph N/A   Clear
4:53 PM 68.0 °F - 19.0 °F 15% 29.91 in 10.0 mi NNW 10.4 mph - N/A   Clear
5:53 PM 63.0 °F - 19.0 °F 18% 29.92 in 10.0 mi NNW 9.2 mph - N/A   Clear
6:53 PM 63.0 °F - 21.0 °F 20% 29.92 in 10.0 mi North 5.8 mph - N/A   Clear
7:53 PM 57.9 °F - 27.0 °F 31% 29.92 in 10.0 mi Calm Calm - N/A   Clear
8:53 PM 53.1 °F - 21.0 °F 29% 29.94 in 10.0 mi NNE 3.5 mph - N/A   Clear
9:53 PM 51.1 °F - 19.9 °F 29% 29.96 in 10.0 mi NNE 5.8 mph - N/A   Clear
10:53 PM 46.9 °F - 24.1 °F 41% 29.96 in 10.0 mi WNW 6.9 mph - N/A   Clear
11:53 PM 46.9 °F - 21.0 °F 36% 29.95 in 10.0 mi SW 3.5 mph - N/A   Clear